Flag for Mauritania Weather past 2 weeks in Rosso, Mauritania

Now
73 °F

Passing clouds.


Feels Like: 77 °F
Forecast: 73 / 102 °F
Wind: 9 mph from North

Location: Saint Airport-Louis

Current Time: Mar 29, 2015 at 12:17:06 AM

Latest Report: Mar 28, 2015 at 11:00 PM


Visibility: N/A

Pressure: 29.98 "Hg

Humidity: 50%

Dew point: 54 °F

Location of RossoLocation

Historic Weather in Rosso — Graph

°F

Rosso temperature yesterday

Maximum temperature yesterday: 106 °F (at 3:00 PM)
Minimum temperature yesterday: 68 °F (at 3:00 AM)
Average temperature yesterday: 84 °F

Past Weeks' High & Low Weather Summary

 TemperatureHumidityPressure
High106 °F (Mar 28, 3:00 PM)100% (Mar 17, 8:00 AM)30.04 "Hg (Mar 17, 8:00 AM)
Low61 °F (Mar 16, 11:00 AM)11% (Mar 14, 1:00 PM)29.74 "Hg (Mar 14, 3:00 PM)
Average72 °F63%29.88 "Hg
* Reported Mar 13 11:00 PM — Mar 28 11:00 PM, Rosso, Weather by CustomWeather, © 2015

Note: Actual official high and low records may vary slightly from our data, if they occured in-between our weather recording intervals... More about our weather records

Advertising

Rosso weather history for previous 24 hours

 ConditionsComfort  
Time TempWeatherWind HumidityBarometerVisibility
11:00 PM
Sat, Mar 28
73 °FPassing clouds.9 mph50%29.98 "HgN/A
10:00 PM75 °FPassing clouds.9 mph44%29.95 "HgN/A
9:00 PM77 °FClear.9 mph42%29.95 "Hg10 mi
8:00 PM82 °FPassing clouds.9 mph28%29.92 "HgN/A
7:00 PM90 °FPassing clouds.12 mph26%29.89 "HgN/A
6:00 PM93 °FExtremely hot.12 mph21%29.86 "HgN/A
5:00 PM95 °FPassing clouds.9 mph26%29.83 "HgN/A
4:00 PM104 °FPassing clouds.7 mph13%29.89 "HgN/A
3:00 PM106 °FPassing clouds.9 mph13%29.89 "HgN/A
2:00 PM104 °FPassing clouds.9 mph12%29.92 "HgN/A
1:00 PM102 °FSunny.9 mph15%29.95 "Hg10 mi
9:00 AM77 °FPassing clouds.7 mph32%30.01 "HgN/A
8:00 AM68 °FPassing clouds.7 mph56%29.98 "HgN/A
7:00 AM70 °FPassing clouds.7 mph60%29.95 "HgN/A
6:00 AM68 °FPassing clouds.5 mph69%29.95 "HgN/A
3:00 AM68 °FPassing clouds.5 mph69%29.95 "HgN/A
12:00 AM73 °FPassing clouds.7 mph44%29.98 "HgN/A
Weather by CustomWeather, © 2015

See weather overviewHow to use our weather pages